Regional Weather Roundup
Issued by NWS

Home | Current Version | Previous Version | Text Only | Print | Product List | Glossary Off
Versions: 1 2 3 4 5 6 7 8 9 10 11 12 13 14 15 16 17 18 19 20 21 22 23 24 25 26 27 28 29 30 31 32 33 34 35 36 37 38 39 40 41 42 43 44 45 46 47 48 49 50

000
ASUS43 KMKX 300521
RWRWI

WISCONSIN REGIONAL WEATHER ROUNDUP
NATIONAL WEATHER SERVICE MILWAUKEE/SULLIVAN WI
1200 AM CDT SAT AUG 30 2014

NOTE: "FAIR" INDICATES FEW OR NO CLOUDS BELOW 12,000 FEET WITH NO
SIGNIFICANT WEATHER AND/OR OBSTRUCTIONS TO VISIBILITY.

WIZ001-002-006>008-014>016-023>028-300600-
NORTHWEST WISCONSIN

CITY           SKY/WX    TMP DP  RH WIND       PRES   REMARKS
SUPERIOR ARPT  CLOUDY    61  61  99 CALM      29.79S
ASHLAND        LGT RAIN  65  64  97 N12       29.79R FOG
HAYWARD        LGT RAIN  64  64 100 CALM      29.79F
SIREN          CLOUDY    67  66  97 NE5       29.78S
RICE LAKE      RAIN      65  64  96 CALM      29.81R
LADYSMITH      RAIN      65  64  96 E3        29.80F
EAU CLAIRE     RAIN      67  66  97 NW9       29.77F
MENOMONIE      RAIN      67  67  98 NE3       29.78F
NEW RICHMOND   RAIN      65  65  98 CALM      29.79S
OSCEOLA        LGT RAIN  67  67 100 E3        29.80F
$$

WIZ003>005-009-010-017-018-300600-
NORTH CENTRAL WISCONSIN

CITY           SKY/WX    TMP DP  RH WIND       PRES   REMARKS
WOODRUFF       LGT RAIN  63  62  95 S3        29.81F
RHINELANDER    CLOUDY    63  62  97 CALM      29.82F
EAGLE RIVER    LGT RAIN  64  64 100 CALM      29.81F
LAND O LAKES   LGT RAIN  64  64  99 S3        29.82F
PHILLIPS       DRIZZLE   64  64  99 S3        29.79F
TOMAHAWK       DRIZZLE   63  62  96 CALM      29.82F
MEDFORD        LGT RAIN  63  63  99 CALM      29.80F
MERRILL        DRIZZLE   64  64 100 CALM      29.82F
$$

WIZ029-030-035-036-043>047-300600-
CENTRAL WISCONSIN

CITY           SKY/WX    TMP DP  RH WIND       PRES   REMARKS
WAUSAU         RAIN      65  64  97 SE3       29.81F FOG
MOSINEE        RAIN      64  64 100 E3        29.84R
MARSHFIELD     RAIN      67  65  93 E3        29.80F FOG
STEVENS POINT  CLOUDY    64  64  97 S3        29.85R
WAUPACA        CLOUDY    73  68  84 N8        29.82R
WAUTOMA        CLOUDY    73  66  78 W12       29.82R
WISC RAPIDS    RAIN      67  67 100 CALM      29.84S FOG
CAMP DOUGLAS   CLOUDY    68  68 100 E5        29.80F
$$

WIZ011>013-019>022-031-037>040-048>050-300600-
NORTHEAST WISCONSIN

CITY           SKY/WX    TMP DP  RH WIND       PRES   REMARKS
ANTIGO         DRIZZLE   63  63  99 CALM      29.86R
STURGEON BAY   CLOUDY    70  66  88 S17       29.83R
GREEN BAY      MOCLDY    73  71  93 S7        29.81S FOG
MANITOWOC      MOCLDY    70  69  97 S13       29.82F
APPLETON       CLOUDY    73  70  88 S9        29.81S
CLINTONVILLE   CLOUDY    70  63  78 N8        29.82S
OSHKOSH        CLOUDY    75  71  87 S14       29.80F
$$

WIZ032>034-041-042-053>061-300600-
SOUTHWEST WISCONSIN

CITY           SKY/WX    TMP DP  RH WIND       PRES   REMARKS
LA CROSSE      LGT RAIN  70  67  90 NE3       29.75F FOG
SPARTA         CLOUDY    67  66  96 E3        29.78S
VIROQUA        CLOUDY    67  67 100 SE7       29.80R
BOSCOBEL       RAIN      71  68  90 CALM      29.78F
PRAIRIE DU CHI RAIN      70  67  90 CALM      29.77F
PLATTEVILLE    CLOUDY    73  71  94 S10       29.81F
$$

WIZ056-057-062-063-064-067-068-300600-
SOUTH CENTRAL WISCONSIN

CITY           SKY/WX    TMP DP  RH WIND       PRES   REMARKS
BARABOO/DELLS  LGT RAIN  73  68  86 SW7       29.80S
LONE ROCK      CLOUDY    74  69  85 E6        29.78F
WATERTOWN      CLOUDY    71  67  89 SE6       29.82F
MADISON        CLOUDY    75  64  68 S14       29.81S
MIDDLETON      MOCLDY    76  66  70 S16       29.81F
MONROE         CLOUDY    72  68  88 S13       29.82F
JANESVILLE     CLOUDY    73  70  88 S10       29.83S
$$

WIZ051-052-058>065-066-070>072-300600-
SOUTHEAST WISCONSIN

CITY           SKY/WX    TMP DP  RH WIND       PRES   REMARKS
MILWAUKEE      CLOUDY    75  70  84 S12       29.85F
WAUKESHA       CLOUDY    70  68  94 SE5       29.85F FOG
MILWAUKEE/TIMM CLOUDY    72  64  78 S6        29.85F
RACINE         MOCLDY    73  69  87 S10       29.87F
BURLINGTON     MOCLDY    68  66  93 CALM      29.85F
KENOSHA        MOCLDY    75  70  84 S8        29.86F
FOND DU LAC    CLOUDY    75  68  78 S13       29.81F
SHEBOYGAN      LGT RAIN  73  70  90 S13       29.83F FOG
WEST BEND      CLOUDY    70  64  83 S3        29.84F
JUNEAU         CLOUDY    73  65  76 SE10G16   29.84S
$$

LSZ147-162-300600-
LAKE SUPERIOR

STATION/POSITION TIME  TEMP    WIND        PRES    WAVE
                       AIR SEA DIR/SP/G            HT/PER
                 (UTC) (F)     (DEG/KT/KT) (MB)    (FT/S)
W MID LAKE BUOY  0450   58 58   20/  6/  8 1008.4S   0
DEVILS ISLAND    0500   60      30/  6/  6 1008.7F
PORT WING        0400   61      60/  5/  9 1009.1S
SAXON HARBOR     0400   66      CALM  /  4 1008.8R
$$

LMZ867-665-643>646-300600-
LAKE MICHIGAN

STATION/POSITION TIME  TEMP    WIND        PRES    WAVE
                       AIR SEA DIR/SP/G            HT/PER
                 (UTC) (F)     (DEG/KT/KT) (MB)    (FT/S)
N MID LAKE BUOY  0450   69 65  190/ 17/ 19 1009.4F   4/ 6
NORTHPORT PIER   0400   69     160/  8/ 19 1010.2S
SISTER BAY       0256   70     160/ 20/ 26   N/A
KEWAUNEE LAKESHO 0400   65     180/ 11/ 13 1009.4F
SHEBOYGAN LAKESH 0500   70 63  180/ 19/ 20 1010.0F
ATWATER BUOY     0500   72     160/ 12/ 16 1011.5F
MILWAUKEE LAKESH 0500   72     150/ 10/ 11   N/A
S MID LAKE BUOY  0450   72 69  160/ 16/ 19 1011.5F
KENOSHA   LAKESH 0500   70     170/ 15/ 17 1010.8F
$$

TC  - TEMPERATURE IN CELSIUS
VSB - VISIBILITY IN STATUTE MILES
WCI - WIND CHILL INDEX
HX  - HEAT INDEX




USA.gov is the U.S. government's official web portal to all federal, state and local government web resources and services.